Burlington, IA

8:16 PM CST on February 27, 2017 (GMT -0600)
Burlington Regional

Weather History for KBRL - December, 2013

Change the Weather History Date:

Saturday, December 7, 2013

  Actual Average Record
Temperature  
Mean Temperature 11 °F 32 °F  
Max Temperature 20 °F 40 °F 66 °F (1916)
Min Temperature 2 °F 23 °F -9 °F (1976)
Degree Days  
Heating Degree Days 54 33  
Month to date heating degree days 244 225  
Since 1 July heating degree days 1481 1298  
Cooling Degree Days 0 0  
Month to date cooling degree days 0 0  
Year to date cooling degree days 1115 1207  
Moisture  
Dew Point 0 °F    
Average Humidity 63    
Maximum Humidity 87    
Minimum Humidity 39    
Precipitation  
Precipitation 0.00 in 0.07 in 0.31 in (2004)
Month to date precipitation T 0.54  
Year to date precipitation 32.39 36.93  
Sea Level Pressure  
Sea Level Pressure 30.69 in    
Wind  
Wind Speed 7 mph (NNE)    
Max Wind Speed 13 mph    
Max Gust Speed 16 mph    
Visibility 10 miles    
Events      
T = Trace of Precipitation, MM = Missing Value Source: NWS Daily Summary

Daily Weather History Graph

Daily Weather History Graph

Search for Another Location

Airport or City:

Trip Planner

Search our weather history database for the weather conditions in past years. The results will help you decide how hot, cold, wet, or windy it might be!

Date:

Astronomy

Dec. 07, 2013 Rise Set
Actual Time 7:15 AM CST 4:36 PM CST
Civil Twilight 6:44 AM CST 5:07 PM CST
Nautical Twilight 6:10 AM CST 5:41 PM CST
Astronomical Twilight 5:37 AM CST 6:14 PM CST
Moon 10:59 AM CST (12/7) 10:20 PM CST (12/7)
Length of Visible Light 10h 22m
Length of Day
9h 21m
Waxing Crescent, 29% of the Moon is Illuminated
Dec 7
Waxing Crescent
Dec 9
First Quarter
Dec 17
Full
Dec 25
Last Quarter
Jan 1
New

Hourly Weather History & Observations

Time (CST) Temp. Windchill Dew Point Humidity Pressure Visibility Wind Dir Wind Speed Gust Speed Precip Events Conditions
12:53 AM 8.1 °F -4.3 °F 1.9 °F 76% 30.67 in 10.0 mi NNW 8.1 mph - N/A   Clear
1:53 AM 8.1 °F -4.3 °F 1.0 °F 73% 30.67 in 10.0 mi NNW 8.1 mph - N/A   Clear
2:53 AM 6.1 °F -5.6 °F 1.0 °F 80% 30.69 in 10.0 mi NNW 6.9 mph - N/A   Clear
3:53 AM 6.1 °F -7.8 °F -0.0 °F 76% 30.70 in 10.0 mi NNW 9.2 mph - N/A   Clear
4:53 AM 3.9 °F -8.2 °F -0.9 °F 80% 30.72 in 10.0 mi NNW 6.9 mph - N/A   Clear
5:53 AM 3.0 °F -9.3 °F -2.0 °F 80% 30.73 in 10.0 mi NNW 6.9 mph - N/A   Clear
6:53 AM 1.9 °F -9.2 °F -2.9 °F 80% 30.76 in 10.0 mi NNW 5.8 mph - N/A   Clear
7:53 AM 1.9 °F -11.8 °F -2.9 °F 80% 30.77 in 10.0 mi NNW 8.1 mph - N/A   Clear
8:53 AM 3.9 °F -9.4 °F -2.0 °F 76% 30.77 in 10.0 mi NNW 8.1 mph - N/A   Clear
9:53 AM 8.1 °F -3.2 °F -0.9 °F 67% 30.79 in 10.0 mi North 6.9 mph - N/A   Clear
10:53 AM 12.0 °F 1.5 °F -0.9 °F 56% 30.78 in 10.0 mi NNW 6.9 mph - N/A   Clear
11:53 AM 15.1 °F 2.5 °F -0.0 °F 51% 30.74 in 10.0 mi North 10.4 mph - N/A   Clear
12:53 PM 16.0 °F 10.4 °F -0.0 °F 49% 30.73 in 10.0 mi NNE 3.5 mph - N/A   Clear
1:53 PM 18.0 °F 6.1 °F -0.0 °F 45% 30.68 in 10.0 mi NNE 10.4 mph - N/A   Clear
2:53 PM 19.0 °F 9.0 °F -2.0 °F 40% 30.67 in 10.0 mi NNE 8.1 mph - N/A   Clear
3:53 PM 17.1 °F 6.6 °F -0.9 °F 45% 30.66 in 10.0 mi North 8.1 mph - N/A   Clear
4:53 PM 15.1 °F 5.2 °F -0.0 °F 51% 30.65 in 10.0 mi ENE 6.9 mph - N/A   Clear
5:53 PM 14.0 °F 8.2 °F -0.0 °F 54% 30.64 in 10.0 mi NE 3.5 mph - N/A   Clear
6:53 PM 12.9 °F 3.8 °F 1.0 °F 59% 30.62 in 10.0 mi ENE 5.8 mph - N/A   Clear
7:53 PM 12.9 °F 3.8 °F 1.0 °F 59% 30.61 in 10.0 mi ENE 5.8 mph - N/A   Clear
8:53 PM 12.9 °F 2.6 °F 1.0 °F 59% 30.61 in 10.0 mi ENE 6.9 mph - N/A   Clear
9:53 PM 14.0 °F 2.0 °F 1.0 °F 56% 30.61 in 10.0 mi ENE 9.2 mph - N/A   Clear
10:53 PM 14.0 °F 3.9 °F 1.9 °F 59% 30.61 in 10.0 mi ENE 6.9 mph - N/A   Clear
11:53 PM 15.1 °F 3.3 °F 3.0 °F 59% 30.58 in 10.0 mi NE 9.2 mph - N/A   Mostly Cloudy